Precipitable_Water
1.16 1.18 1.17 1.09 1.09 1.06 0.99 1.05 1.08 1.00 1.03 1.08 1.25 1.31 1.21 1.13 1.11 1.14 1.14 1.13 1.04 0.89 0.81 0.79 0.79 0.79 0.84 0.88 0.89 0.91 0.95 0.96 0.95 0.98 0.96 1.00 1.15 1.05 1.03 0.97 0.96 0.98 0.98
1.18 1.25 1.17 1.12 1.11 1.09 1.01 1.03 1.02 1.07 1.22 1.39 1.32 1.19 1.08 1.03 0.97 0.90 0.84 0.77 0.71 0.68 0.66 0.63 0.61 0.62 0.64 0.68 0.72 0.71 0.79 0.87 0.91 0.92 0.94 1.02 1.10 1.04 1.03 1.05 0.97 0.98 1.08
1.18 1.24 1.20 1.16 1.20 1.18 1.09 1.09 1.12 1.36 1.41 1.25 1.09 1.07 1.01 0.89 0.82 0.77 0.72 0.65 0.63 0.64 0.65 0.65 0.64 0.61 0.58 0.55 0.52 0.50 0.53 0.72 0.82 0.77 0.83 1.05 1.12 1.08 1.00 1.03 1.15 1.09 1.17
1.22 1.25 1.21 1.27 1.33 1.33 1.23 1.24 1.31 1.34 1.22 1.16 1.09 0.95 0.82 0.74 0.71 0.68 0.68 0.67 0.66 0.66 0.67 0.66 0.64 0.62 0.59 0.59 0.62 0.61 0.54 0.65 0.73 0.78 0.93 1.00 1.00 0.98 0.93 0.97 0.99 1.04 1.15
1.29 1.28 1.26 1.36 1.49 1.50 1.39 1.23 1.17 1.16 1.15 1.03 0.88 0.77 0.72 0.70 0.68 0.69 0.68 0.66 0.65 0.68 0.68 0.65 0.64 0.62 0.63 0.73 0.74 0.69 0.64 0.62 0.71 0.79 0.82 0.87 0.92 0.89 0.93 0.97 0.94 0.95 1.09
1.35 1.31 1.36 1.46 1.54 1.53 1.44 1.20 1.11 1.04 0.96 0.82 0.74 0.68 0.69 0.69 0.71 0.67 0.64 0.65 0.66 0.69 0.65 0.62 0.61 0.57 0.68 0.78 0.78 0.78 0.70 0.70 0.69 0.72 0.76 0.80 0.85 0.96 1.14 1.14 1.15 1.11 1.06
1.38 1.35 1.43 1.47 1.51 1.50 1.44 1.20 1.02 0.90 0.80 0.72 0.69 0.70 0.71 0.71 0.68 0.65 0.62 0.63 0.66 0.65 0.62 0.61 0.57 0.58 0.73 0.76 0.83 0.84 0.84 0.84 0.85 0.89 0.94 0.93 1.19 1.22 1.16 1.14 1.11 1.14 1.10
1.40 1.41 1.47 1.49 1.50 1.45 1.40 1.22 0.93 0.78 0.72 0.69 0.70 0.72 0.71 0.68 0.65 0.63 0.63 0.63 0.63 0.61 0.62 0.59 0.56 0.63 0.71 0.74 0.85 0.86 0.87 0.85 0.81 0.87 0.93 1.04 1.13 1.08 1.02 1.04 1.05 1.03 1.02
1.51 1.49 1.49 1.51 1.51 1.41 1.35 1.19 0.86 0.75 0.70 0.71 0.71 0.70 0.69 0.66 0.65 0.63 0.63 0.63 0.58 0.56 0.57 0.55 0.60 0.68 0.71 0.71 0.76 0.81 0.84 0.85 0.81 0.81 0.86 0.90 1.00 1.07 1.06 1.00 1.00 0.96 0.94
1.57 1.56 1.54 1.51 1.46 1.40 1.32 1.15 0.86 0.71 0.70 0.72 0.69 0.65 0.63 0.62 0.60 0.60 0.60 0.58 0.52 0.51 0.53 0.56 0.66 0.72 0.74 0.73 0.73 0.75 0.77 0.77 0.75 0.76 0.82 0.79 0.85 0.94 0.97 0.94 0.90 0.86 0.84
1.53 1.54 1.53 1.44 1.41 1.36 1.27 1.13 0.85 0.69 0.67 0.65 0.60 0.57 0.56 0.53 0.51 0.51 0.52 0.51 0.48 0.54 0.58 0.63 0.65 0.68 0.66 0.69 0.68 0.67 0.67 0.68 0.71 0.85 0.98 0.99 0.99 0.94 0.94 0.90 0.87 0.83 0.76
1.48 1.53 1.51 1.41 1.37 1.31 1.24 1.05 0.79 0.68 0.57 0.52 0.54 0.51 0.47 0.44 0.43 0.45 0.48 0.50 0.55 0.60 0.62 0.62 0.64 0.64 0.64 0.61 0.62 0.62 0.62 0.67 0.78 0.82 0.89 0.89 0.89 0.88 0.84 0.80 0.78 0.77 0.76
1.49 1.57 1.53 1.42 1.36 1.29 1.20 0.98 0.75 0.61 0.51 0.53 0.54 0.51 0.46 0.43 0.44 0.46 0.48 0.50 0.53 0.59 0.63 0.67 0.68 0.67 0.64 0.62 0.61 0.59 0.60 0.61 0.69 0.75 0.80 0.79 0.76 0.75 0.73 0.71 0.72 0.72 0.72
1.49 1.54 1.57 1.48 1.39 1.31 1.20 0.94 0.69 0.55 0.51 0.50 0.53 0.48 0.44 0.48 0.47 0.46 0.46 0.48 0.54 0.61 0.62 0.69 0.68 0.68 0.66 0.62 0.61 0.59 0.56 0.52 0.58 0.67 0.69 0.65 0.62 0.65 0.68 0.70 0.71 0.72 0.73
1.46 1.51 1.55 1.54 1.44 1.33 1.13 0.88 0.69 0.56 0.53 0.50 0.49 0.46 0.49 0.50 0.47 0.47 0.47 0.51 0.56 0.62 0.65 0.68 0.69 0.67 0.65 0.63 0.61 0.58 0.57 0.55 0.50 0.50 0.53 0.55 0.58 0.62 0.66 0.69 0.72 0.73 0.73
1.56 1.54 1.61 1.59 1.49 1.36 1.10 0.87 0.75 0.63 0.55 0.48 0.47 0.48 0.50 0.52 0.49 0.48 0.48 0.51 0.54 0.60 0.66 0.70 0.69 0.68 0.67 0.65 0.60 0.58 0.56 0.55 0.55 0.54 0.52 0.52 0.54 0.57 0.60 0.63 0.65 0.67 0.68
1.60 1.63 1.61 1.57 1.49 1.31 1.11 0.96 0.79 0.63 0.54 0.48 0.47 0.49 0.51 0.53 0.51 0.51 0.50 0.51 0.55 0.59 0.64 0.67 0.70 0.72 0.69 0.68 0.61 0.58 0.57 0.56 0.55 0.57 0.57 0.55 0.53 0.51 0.53 0.55 0.57 0.58 0.60
1.41 1.47 1.60 1.52 1.45 1.34 1.15 1.00 0.83 0.65 0.54 0.49 0.48 0.50 0.52 0.55 0.55 0.54 0.53 0.55 0.60 0.61 0.62 0.64 0.65 0.64 0.64 0.65 0.61 0.60 0.58 0.57 0.57 0.58 0.59 0.58 0.56 0.53 0.51 0.50 0.50 0.51 0.54
1.42 1.42 1.53 1.52 1.46 1.34 1.23 1.10 0.93 0.72 0.56 0.51 0.50 0.50 0.53 0.57 0.58 0.60 0.59 0.62 0.63 0.63 0.63 0.63 0.61 0.60 0.56 0.57 0.61 0.64 0.63 0.59 0.59 0.61 0.60 0.60 0.60 0.57 0.55 0.53 0.51 0.49 0.50
1.39 1.42 1.46 1.48 1.46 1.40 1.28 1.14 1.02 0.81 0.60 0.54 0.51 0.52 0.56 0.59 0.61 0.64 0.64 0.64 0.65 0.65 0.66 0.66 0.65 0.64 0.59 0.56 0.56 0.57 0.63 0.65 0.64 0.64 0.64 0.65 0.65 0.63 0.61 0.58 0.55 0.53 0.53
1.19 1.30 1.45 1.40 1.46 1.45 1.37 1.17 1.03 0.89 0.69 0.57 0.55 0.57 0.61 0.64 0.64 0.65 0.64 0.65 0.67 0.66 0.67 0.69 0.68 0.65 0.61 0.61 0.55 0.55 0.56 0.62 0.66 0.70 0.70 0.67 0.67 0.66 0.64 0.62 0.61 0.59 0.58
0.96 1.17 1.16 1.31 1.45 1.42 1.42 1.33 1.19 1.02 0.87 0.69 0.65 0.63 0.65 0.65 0.67 0.66 0.65 0.66 0.68 0.69 0.70 0.71 0.70 0.67 0.65 0.64 0.56 0.54 0.48 0.54 0.61 0.68 0.71 0.69 0.68 0.68 0.64 0.63 0.63 0.62 0.62
0.84 0.98 1.14 1.25 1.31 1.42 1.37 1.41 1.36 1.23 1.05 0.91 0.74 0.69 0.70 0.70 0.70 0.69 0.70 0.68 0.70 0.71 0.70 0.73 0.73 0.70 0.65 0.69 0.65 0.58 0.51 0.48 0.56 0.63 0.66 0.68 0.67 0.66 0.67 0.67 0.67 0.66 0.64
0.79 0.91 0.99 1.10 1.34 1.35 1.39 1.35 1.27 1.23 1.13 1.05 0.89 0.80 0.75 0.74 0.76 0.74 0.74 0.75 0.73 0.75 0.75 0.77 0.78 0.75 0.72 0.67 0.72 0.71 0.66 0.61 0.51 0.48 0.61 0.63 0.63 0.61 0.63 0.65 0.67 0.66 0.66
0.79 0.82 0.93 1.07 1.15 1.26 1.36 1.38 1.26 1.22 1.17 1.09 0.99 0.90 0.84 0.79 0.80 0.79 0.77 0.78 0.78 0.78 0.80 0.83 0.81 0.80 0.78 0.73 0.72 0.70 0.68 0.65 0.61 0.52 0.46 0.50 0.57 0.60 0.61 0.61 0.61 0.61 0.62
0.77 0.83 0.86 0.96 1.01 1.09 1.18 1.25 1.24 1.22 1.26 1.21 1.18 1.05 0.91 0.83 0.79 0.84 0.82 0.80 0.80 0.81 0.82 0.84 0.87 0.83 0.81 0.80 0.78 0.75 0.68 0.60 0.57 0.54 0.51 0.51 0.50 0.54 0.59 0.60 0.60 0.62 0.63
Wind_Speed
20 20 19 18 18 17 17 16 15 13 12 11 10 10 10 10 9 8 8 7 6 5 5 4 4 3 3 3 3 4 4 4 5 5 6 6 6 6 6 6 6 6 7
21 22 20 19 19 18 17 16 15 13 12 12 11 10 9 9 8 7 6 6 5 5 4 4 4 3 3 2 2 2 3 3 4 5 5 5 6 6 6 5 5 6 6
22 22 22 21 20 19 18 17 15 14 14 12 10 10 9 8 7 7 6 6 5 5 4 4 4 4 3 3 3 2 2 3 3 4 4 4 5 6 5 5 5 6 6
23 23 23 23 21 19 18 17 16 15 13 12 10 9 8 8 7 6 6 6 5 5 4 4 4 4 4 4 4 4 3 3 3 4 4 4 5 6 5 5 5 6 6
23 24 24 24 22 20 19 18 17 15 13 12 11 10 9 8 7 6 6 5 4 4 4 4 4 5 5 5 4 4 3 3 3 4 4 4 5 5 5 5 5 6 7
24 25 25 24 23 21 20 18 17 16 14 13 11 10 9 8 7 6 5 5 4 3 3 4 4 4 5 5 4 4 5 4 4 4 4 4 4 5 5 5 6 6 6
26 26 25 25 24 22 21 19 18 16 15 14 12 11 10 8 7 6 5 4 3 3 3 3 3 4 4 4 4 4 4 4 5 5 5 5 5 5 6 6 6 7 8
28 27 26 26 25 24 22 20 19 17 16 15 13 12 10 9 8 6 5 4 3 2 3 3 3 3 4 3 4 4 4 4 5 5 5 5 5 5 6 6 6 7 8
30 29 27 27 26 25 23 21 20 19 17 16 14 13 11 9 8 7 5 4 3 3 3 3 3 4 4 3 3 3 4 4 5 4 4 5 5 6 6 6 7 8 9
32 31 29 28 27 26 24 22 21 20 18 17 15 14 12 10 9 7 6 4 3 3 3 4 3 3 4 3 3 3 4 5 5 5 5 5 6 6 7 7 8 9 10
35 33 31 29 28 27 25 24 22 21 20 18 17 15 13 11 9 8 6 5 5 4 4 3 3 2 3 2 3 4 5 5 4 5 5 5 6 7 7 8 9 10 11
36 35 33 31 29 28 26 25 23 22 21 20 18 16 14 12 10 9 7 6 5 5 4 2 1 1 2 2 3 4 5 4 4 5 6 6 7 8 8 9 10 11 11
37 35 34 32 30 29 27 25 24 23 22 21 19 17 15 13 11 10 8 7 6 5 4 3 1 0 1 2 3 4 5 5 5 6 6 7 8 9 9 9 10 11 11
40 37 35 33 31 29 28 26 25 24 23 22 20 19 17 15 13 11 9 8 7 5 5 4 2 1 2 3 4 5 6 6 6 7 8 8 9 9 9 10 10 11 12
40 37 37 34 32 30 28 26 25 25 24 22 21 20 18 16 14 13 11 9 8 6 6 5 4 3 4 5 5 6 7 7 7 8 8 9 9 10 10 11 12 12 12
39 39 37 35 33 32 29 27 26 25 24 23 22 21 19 18 16 14 12 11 9 8 7 6 6 6 6 7 7 7 8 8 9 9 10 10 11 11 12 12 13 13 14
34 37 37 36 34 33 30 29 27 26 25 24 23 22 20 19 17 16 14 13 11 10 9 8 7 7 8 8 9 9 9 10 11 11 12 12 13 13 14 14 14 15 15
35 31 34 35 34 33 31 29 28 27 26 25 23 22 21 20 19 17 16 14 13 12 11 10 10 10 10 11 11 11 12 12 13 14 14 15 15 16 16 16 16 17 17
27 27 31 32 33 33 32 30 28 27 26 25 24 23 22 21 20 19 17 16 15 14 13 13 12 12 13 13 13 14 15 15 15 16 17 17 17 18 18 18 18 18 18
29 27 25 30 33 32 32 31 29 27 26 26 25 24 23 22 21 20 19 18 17 16 15 15 15 15 14 15 15 16 17 18 18 18 18 19 19 20 20 19 19 20 20
33 30 30 29 26 31 29 31 29 27 26 26 26 25 24 23 22 21 20 20 19 18 18 18 17 17 17 17 18 19 19 20 20 20 20 21 21 21 21 21 21 21 22
34 35 34 31 21 26 24 26 29 29 27 27 26 26 25 25 24 22 22 21 21 20 20 20 19 19 20 19 20 20 21 22 23 23 23 23 23 23 23 23 23 23 24
35 35 34 33 32 27 24 21 26 28 26 26 27 27 26 26 25 24 23 23 22 22 22 22 22 21 21 22 22 22 22 23 24 25 25 25 24 24 24 25 25 26 26
34 34 34 35 31 33 31 29 28 23 25 27 28 27 28 28 26 26 25 25 24 23 23 23 23 23 23 23 23 24 24 25 25 24 24 25 25 25 25 26 27 28 28
32 34 34 34 35 34 30 26 29 26 27 26 29 29 27 28 28 28 27 27 26 26 25 25 25 25 25 26 27 26 26 25 25 25 24 24 24 25 27 28 29 29 30
31 32 35 34 33 34 35 32 30 29 27 26 26 29 28 27 28 27 27 28 28 26 26 26 27 28 28 28 27 27 26 26 25 25 25 26 26 27 28 30 31 32 33
Wind_Direction
193 187 183 179 176 173 170 167 164 161 157 152 146 138 132 127 126 123 118 113 107 102 96 90 84 81 80 78 70 60 55 54 53 50 47 42 40 42 43 44 42 38 33
187 186 183 179 176 174 172 170 168 165 160 153 147 144 139 134 131 126 121 116 109 101 91 83 78 75 74 70 59 52 55 54 52 44 37 36 36 37 36 35 32 27 23
187 186 184 180 177 176 175 173 171 168 161 158 155 151 147 142 137 131 124 116 109 99 89 81 77 75 71 64 59 63 62 55 42 27 31 41 33 27 25 22 22 16 12
188 186 185 183 181 179 178 177 172 170 169 167 163 159 153 148 142 135 128 120 109 98 88 81 78 76 73 70 73 69 63 57 34 34 42 37 29 22 17 15 7 3 360
190 188 187 186 185 183 180 179 178 178 176 173 169 164 159 153 147 140 134 124 113 98 88 83 81 78 75 73 68 60 55 47 38 26 16 9 5 4 9 7 2 360 1
191 190 189 188 187 185 184 183 183 182 181 178 174 169 164 159 152 147 140 129 116 102 91 88 83 81 77 68 60 62 64 52 35 25 17 6 6 9 14 13 13 9 4
194 192 191 190 189 188 188 187 186 185 183 181 178 173 169 165 160 155 149 139 123 108 100 94 88 87 78 61 61 67 57 46 39 35 30 31 30 30 21 14 9 6 1
196 194 193 192 192 191 190 190 189 188 186 184 181 178 175 171 167 162 156 147 134 118 110 102 95 95 73 59 66 63 50 35 30 26 25 23 14 0 354 352 350 347 346
198 196 195 194 193 193 193 192 192 191 189 187 185 182 180 176 174 171 167 163 150 133 128 113 103 87 63 70 63 49 31 18 14 6 3 359 2 355 353 344 344 341 338
198 197 196 195 195 195 194 194 193 192 191 190 188 186 184 182 180 178 175 174 161 151 138 127 114 83 60 71 47 23 3 354 352 350 346 339 338 339 342 341 336 335 337
199 199 198 197 196 196 196 196 195 194 193 193 191 190 189 188 187 185 183 179 168 157 143 134 119 80 44 47 19 3 357 355 357 3 2 4 358 351 345 341 339 336 334
200 199 199 198 198 197 198 198 197 197 196 195 194 193 193 193 191 187 185 179 173 174 167 155 139 73 37 23 10 1 360 359 358 350 348 343 338 335 333 330 332 332 333
200 199 198 198 198 199 199 200 200 199 198 198 197 199 198 196 194 193 192 191 191 193 198 194 193 259 3 354 351 350 348 342 336 333 331 330 329 328 327 327 330 330 331
199 200 199 199 200 200 201 202 202 201 201 201 202 201 201 202 203 203 202 204 204 207 207 212 224 250 313 329 325 329 333 331 322 321 320 321 323 325 327 326 326 326 328
199 199 200 200 201 202 203 203 203 204 204 205 204 205 205 207 208 207 208 209 212 215 218 222 236 262 293 308 312 312 317 320 321 319 318 318 318 317 318 319 320 322 323
198 199 200 201 202 203 204 204 205 205 205 206 207 208 208 209 211 212 214 216 222 226 228 231 245 265 286 297 302 305 307 309 310 310 310 311 311 311 311 312 314 315 316
201 199 201 201 202 203 204 205 206 206 206 208 209 210 211 212 214 217 221 224 226 229 233 238 254 269 281 291 294 299 301 302 302 303 304 304 305 306 305 305 307 309 311
212 201 199 203 204 204 205 206 207 207 208 209 211 212 213 215 217 221 225 228 230 233 239 247 260 271 280 284 287 293 298 297 298 298 298 299 299 301 301 300 301 304 307
207 208 203 205 205 205 205 206 208 209 210 211 213 215 216 218 220 223 227 230 234 239 246 253 263 272 276 280 284 290 294 296 296 296 296 296 297 297 297 297 298 300 302
220 219 210 204 205 205 205 206 208 209 212 213 215 217 218 220 223 226 230 233 237 243 251 258 263 272 275 280 284 288 291 293 293 294 293 294 295 295 295 295 295 296 298
224 219 218 218 217 208 210 201 211 210 213 216 218 218 220 223 225 229 233 237 241 248 253 260 265 271 276 280 284 287 289 291 292 292 292 292 292 292 292 292 293 295 296
224 223 224 225 219 208 211 213 216 216 217 219 221 221 222 224 228 231 235 240 245 251 256 260 265 272 277 280 283 287 290 291 290 289 291 290 290 289 289 289 291 292 294
224 224 224 226 225 221 226 219 214 212 223 224 223 224 226 228 231 236 239 244 249 254 257 261 267 272 275 279 283 285 289 289 290 291 288 288 288 288 287 288 290 291 292
224 224 224 223 221 226 226 227 226 232 226 225 225 230 231 232 235 240 244 245 250 255 260 263 267 271 275 278 280 283 287 289 290 291 289 287 287 287 288 288 290 291 290
223 222 223 223 225 224 226 228 228 231 227 241 231 232 233 235 240 244 245 248 252 258 261 264 268 272 275 278 278 281 284 287 288 288 289 290 288 287 288 289 290 290 291
222 223 222 223 226 227 228 231 231 234 237 231 235 233 242 246 245 245 247 251 255 259 265 267 270 274 275 275 277 279 281 285 286 286 286 289 287 290 290 291 291 290 291